[[{"header":{"parameterUnit":"m.s-1","parameterCategory":1,"la1":30.2991,"la2":30.254,"lo1":-89.0895,"lo2":-89.0444,"dy":0.0017,"dx":0.0017,"nx":28,"ny":28,"refTime":"2023-09-21T21:00:00:Z","depth":0,"parameterNumber":2,"parameterNumberName":"U-component_of_WINDS"},"data":[0,0,0,0,0,0,0,0,0,0,0,0,0,0,0,0,0,0,0,0,0,0,0,0,0,0,0,0,0,0,0,0,0,0,0,0,0,0,0,0,0,0,0,0,0,0,0,0,0,0,0,0,0,0,0,0,0,0,-4.3113,-4.3113,0,-4.3097,-4.3097,-4.3096,-4.298,-4.2977,-4.2974,-4.2971,-4.2955,-4.2957,-4.2959,0,0,0,0,0,0,0,0,0,0,0,0,0,-4.3044,-4.3046,-4.3113,-4.3113,-4.3113,-4.3097,-4.3097,-4.3096,-4.298,-4.2977,-4.2973,-4.297,-4.2954,-4.2957,-4.296,0,0,0,0,0,0,0,0,0,0,0,0,0,-4.3056,-4.3047,-4.3113,-4.3053,-4.3047,-4.3097,-4.3097,-4.3096,-4.2981,-4.2977,-4.2972,-4.2968,-4.2953,-4.2957,-4.296,-4.3066,0,0,-4.297,-4.2972,0,0,0,0,0,0,0,0,-4.3055,-4.3058,-4.3062,-4.3057,-4.3051,-4.3036,-4.3066,-4.3086,-4.2982,-4.3006,-4.2971,-4.2966,-4.2985,-4.2986,-4.2992,-4.3065,-4.3065,-4.297,-4.2972,-4.2974,-4.2975,0,0,0,0,0,0,0,-4.3055,-4.3059,-4.3107,-4.3062,-4.3055,-4.3027,-4.3024,-4.3069,-4.302,-4.3004,-4.2995,-4.2995,-4.2982,-4.2989,-4.2991,-4.3065,-4.297,-4.2973,-4.2975,-4.2977,-4.3226,-4.323,0,0,0,0,0,0,-4.3062,-4.3059,-4.3107,-4.3106,-4.3043,-4.3032,-4.3028,-4.3045,-4.3019,-4.3011,-4.2999,-4.299,-4.2986,-4.2987,-4.299,-4.3114,-4.2974,-4.2977,-4.2979,-4.3221,-4.3227,-4.3232,0,0,0,0,0,0,-4.3061,-4.3068,-4.3108,-4.308,-4.3083,-4.3037,-4.3057,-4.3047,-4.3055,-4.3015,-4.3006,-4.3016,-4.2982,-4.2985,-4.3048,-4.3112,-4.2979,-4.2982,-4.3216,-4.3223,-4.3229,-4.3362,0,0,0,0,0,0,-4.306,-4.3068,-4.3108,-4.3082,-4.3085,-4.3167,-4.3061,-4.305,-4.3061,-4.3049,-4.3029,-4.3021,-4.2979,-4.3044,-4.3052,-4.3114,-4.2984,-4.321,-4.3219,-4.3227,-4.3352,-4.3373,-4.3391,0,0,0,0,0,-4.3058,-4.3146,-4.311,-4.3117,-4.3134,-4.3171,-4.3172,-4.3122,-4.3066,-4.3106,-4.3081,-4.3022,-4.3103,-4.3052,-4.3059,-4.3123,-4.3206,-4.3216,-4.3226,-4.3343,-4.3369,-4.339,0,0,0,0,0,0,-4.318,-4.3141,-4.3102,-4.3183,-4.3181,-4.3151,-4.3199,-4.315,-4.3164,-4.3152,-4.3089,-4.3086,-4.3159,-4.3147,-4.309,-4.3226,-4.3144,-4.3157,-4.3231,-4.3255,-4.3274,-4.3276,-4.2987,0,0,0,0,0,-4.3216,-4.3249,-4.3214,-4.3289,-4.329,-4.3246,-4.326,-4.3221,-4.3216,-4.3215,-4.3194,-4.3192,-4.3217,-4.3235,-4.3256,-4.335,-4.3344,-4.3397,-4.3417,-4.3433,-4.3445,-4.3495,-4.3519,-4.3266,-4.3266,-4.3266,0,0,-4.3292,-4.3275,-4.3299,-4.3314,-4.3307,-4.3344,-4.3245,-4.3287,-4.3314,-4.3221,-4.328,-4.3265,-4.3258,-4.3338,-4.3372,-4.333,-4.3513,-4.3446,-4.3459,-4.3462,-4.3508,-4.3532,-4.3554,-4.3273,-4.3272,-4.3271,0,0,-4.3448,-4.3438,-4.3501,-4.3497,-4.3489,-4.3459,-4.3474,-4.3452,-4.3438,-4.3496,-4.3428,-4.3458,-4.3503,-4.3501,-4.3506,-4.3664,-4.3611,-4.3673,-4.3774,-4.3824,-4.3844,-4.3861,-4.3919,-4.394,-4.3684,-4.3685,-4.3685,0,-4.3543,-4.3595,-4.354,-4.3587,-4.3596,-4.3514,-4.3577,-4.3576,-4.3575,-4.3584,-4.3537,-4.3592,-4.3581,-4.366,-4.3699,-4.3705,-4.3722,-4.3675,-4.3845,-4.3862,-4.3878,-4.3932,-4.3954,-4.3692,-4.3691,-4.3691,-4.369,0,-4.3713,-4.375,-4.3802,-4.3804,-4.3819,-4.3874,-4.3827,-4.3849,-4.381,-4.3785,-4.3846,-4.383,-4.3847,-4.3863,-4.3824,-4.3937,-4.3912,-4.3856,-4.3774,-4.391,-4.3961,-4.3981,-4.3703,-4.37,-4.3698,-4.3696,0,0,-4.3946,-4.3918,-4.3938,-4.3939,-4.3924,-4.3952,-4.4004,-4.4021,-4.4041,-4.4044,-4.4086,-4.4126,-4.4075,-4.4081,-4.4042,-4.4086,-4.4214,-4.4025,-4.4024,-4.4062,-4.4339,-4.4382,-4.4407,-4.4178,-4.4182,-4.4185,-4.434,0,-4.4098,-4.4185,-4.4137,-4.4231,-4.4266,-4.4189,-4.4234,-4.4231,-4.4209,-4.4235,-4.4211,-4.4241,-4.4171,-4.4174,-4.4214,-4.419,-4.4269,-4.4178,-4.4219,-4.4221,-4.4224,-4.4433,-4.4478,-4.4625,-4.4359,-4.4362,-4.4365,0,-4.4286,-4.4298,-4.4396,-4.4377,-4.4389,-4.4431,-4.4443,-4.4469,-4.4464,-4.4445,-4.4453,-4.4403,-4.4454,-4.4372,-4.4441,-4.438,-4.4394,-4.4385,-4.439,-4.4392,-4.4302,-4.4443,-4.467,-4.4693,-4.4395,-4.4392,-4.439,0,-4.4449,-4.4488,-4.4552,-4.4555,-4.4534,-4.4565,-4.4558,-4.4548,-4.4562,-4.4573,-4.4581,-4.4598,-4.4608,-4.4622,-4.4579,-4.4523,-4.4655,-4.4568,-4.4641,-4.4643,-4.4673,-4.4672,-4.4908,-4.4681,-4.468,-4.468,-4.4679,0,-4.4624,-4.4687,-4.4625,-4.4665,-4.4734,-4.4678,-4.4748,-4.4733,-4.4725,-4.4761,-4.4695,-4.473,-4.467,-4.4699,-4.4666,-4.4729,-4.4734,-4.4721,-4.4711,-4.4727,-4.4729,-4.4736,-4.4726,-4.4686,-4.4684,-4.4683,-4.4682,0,-4.4817,-4.4778,-4.4843,-4.4818,-4.4813,-4.4865,-4.4843,-4.4879,-4.4853,-4.49,-4.4907,-4.4867,-4.4898,-4.4856,-4.4883,-4.486,-4.4948,-4.4922,-4.495,-4.4943,-4.5019,-4.5013,-4.5269,-4.53,-4.5051,-4.5054,-4.5056,0,-4.4932,-4.4979,-4.4959,-4.4978,-4.4975,-4.5007,-4.5021,-4.4968,-4.4986,-4.4984,-4.5021,-4.5046,-4.5064,-4.5118,-4.5091,-4.5112,-4.5087,-4.5175,-4.5089,-4.5105,-4.509,-4.5088,-4.5094,-4.5193,-4.5196,-4.5198,-4.52,0,-4.5141,-4.5119,-4.5142,-4.5159,-4.5178,-4.5188,-4.5194,-4.5213,-4.5158,-4.5181,-4.5213,-4.5227,-4.5254,-4.5281,-4.5295,-4.5287,-4.5236,-4.5227,-4.5246,-4.5263,-4.5278,-4.5273,-4.4999,-4.5222,-4.522,-4.5218,-4.5217,-4.5216,-4.5299,-4.5338,-4.5331,-4.5359,-4.5357,-4.5365,-4.5398,-4.5376,-4.5401,-4.542,-4.5387,-4.5428,-4.5422,-4.5435,-4.5434,-4.5465,-4.5427,-4.5453,-4.546,-4.5467,-4.548,-4.5272,-4.5467,-4.5466,-4.5466,-4.5465,-4.5465,0,-4.5506,-4.5497,-4.5524,-4.5534,-4.5557,-4.5506,-4.5509,-4.5532,-4.5568,-4.5567,-4.5587,-4.5624,-4.565,-4.5625,-4.5647,-4.5676,-4.5653,-4.5684,-4.5682,-4.5682,-4.5512,-4.5495,-4.5702,-4.5702,-4.5702,-4.5702,-4.5702,-4.5702,-4.5616,-4.568,-4.5658,-4.5721,-4.5712,-4.5751,-4.5758,-4.5765,-4.5764,-4.5808,-4.583,-4.5814,-4.5804,-4.5824,-4.5846,-4.5838,-4.585,-4.589,-4.5874,-4.5716,-4.5693,-4.5671,-4.5655,-4.5892,-4.5893,-4.6041,-4.6042,-4.6043]},{"header":{"parameterUnit":"m.s-1","parameterCategory":1,"la1":30.2991,"la2":30.254,"lo1":-89.0895,"lo2":-89.0444,"dy":0.0017,"dx":0.0017,"nx":28,"ny":28,"refTime":"2023-09-21T21:00:00:Z","depth":0,"parameterNumber":3,"parameterNumberName":"V-component_of_WINDS"},"data":[0,0,0,0,0,0,0,0,0,0,0,0,0,0,0,0,0,0,0,0,0,0,0,0,0,0,0,0,0,0,0,0,0,0,0,0,0,0,0,0,0,0,0,0,0,0,0,0,0,0,0,0,0,0,0,0,0,0,-1.8604,-1.8605,0,-1.8658,-1.8659,-1.866,-1.8647,-1.8646,-1.8645,-1.8644,-1.8699,-1.8701,-1.8703,0,0,0,0,0,0,0,0,0,0,0,0,0,-1.8489,-1.8491,-1.8604,-1.8605,-1.8606,-1.8658,-1.8659,-1.866,-1.8647,-1.8646,-1.8644,-1.8643,-1.8698,-1.8701,-1.8704,0,0,0,0,0,0,0,0,0,0,0,0,0,-1.8541,-1.8492,-1.8604,-1.8606,-1.8606,-1.8658,-1.8659,-1.866,-1.8647,-1.8646,-1.8644,-1.8643,-1.8697,-1.87,-1.8704,-1.8757,0,0,-1.8715,-1.8717,0,0,0,0,0,0,0,0,-1.8538,-1.8545,-1.8605,-1.8606,-1.8607,-1.8644,-1.8638,-1.8693,-1.8648,-1.8632,-1.8644,-1.8642,-1.8682,-1.8687,-1.87,-1.876,-1.8762,-1.8715,-1.8718,-1.8719,-1.872,0,0,0,0,0,0,0,-1.8534,-1.8542,-1.8626,-1.8606,-1.8607,-1.8603,-1.8609,-1.8649,-1.8665,-1.8633,-1.8632,-1.8639,-1.8682,-1.8697,-1.8701,-1.8763,-1.8715,-1.8719,-1.8721,-1.8722,-1.8869,-1.887,0,0,0,0,0,0,-1.853,-1.854,-1.8624,-1.8627,-1.8568,-1.8607,-1.8613,-1.8634,-1.8664,-1.8668,-1.864,-1.8638,-1.8691,-1.8697,-1.8703,-1.8768,-1.8719,-1.8723,-1.8725,-1.8867,-1.8869,-1.8871,0,0,0,0,0,0,-1.8528,-1.8538,-1.8622,-1.8583,-1.8594,-1.861,-1.8634,-1.8636,-1.865,-1.867,-1.8672,-1.8652,-1.869,-1.8698,-1.8744,-1.8769,-1.8724,-1.8728,-1.8865,-1.8868,-1.887,-1.8897,0,0,0,0,0,0,-1.8524,-1.8537,-1.8558,-1.8584,-1.8596,-1.8662,-1.8635,-1.8638,-1.8657,-1.8654,-1.8682,-1.8685,-1.869,-1.8739,-1.8748,-1.8774,-1.873,-1.8863,-1.8866,-1.8869,-1.8894,-1.89,-1.8906,0,0,0,0,0,-1.852,-1.8563,-1.8559,-1.8569,-1.8622,-1.8664,-1.8671,-1.8675,-1.8659,-1.868,-1.8692,-1.8684,-1.8765,-1.8743,-1.8753,-1.8781,-1.8861,-1.8865,-1.8869,-1.8891,-1.8899,-1.8905,0,0,0,0,0,0,-1.854,-1.8567,-1.8562,-1.8615,-1.8637,-1.8662,-1.8688,-1.8683,-1.8711,-1.8707,-1.8712,-1.8718,-1.8765,-1.8777,-1.8753,-1.8834,-1.8811,-1.8817,-1.8824,-1.8832,-1.8837,-1.8834,-1.8733,0,0,0,0,0,-1.8551,-1.8582,-1.8604,-1.8648,-1.8659,-1.8672,-1.869,-1.8692,-1.8715,-1.8724,-1.874,-1.8762,-1.8792,-1.8813,-1.8842,-1.8895,-1.8901,-1.8919,-1.8925,-1.8929,-1.8935,-1.8964,-1.8972,-1.8884,-1.8884,-1.8884,0,0,-1.8573,-1.8591,-1.8611,-1.8653,-1.867,-1.8702,-1.868,-1.8715,-1.8739,-1.8729,-1.8774,-1.8786,-1.8811,-1.8861,-1.8884,-1.8873,-1.896,-1.8934,-1.8938,-1.8941,-1.8968,-1.8977,-1.8984,-1.8886,-1.8886,-1.8885,0,0,-1.863,-1.8647,-1.8686,-1.8703,-1.873,-1.8737,-1.8747,-1.8771,-1.8779,-1.8824,-1.8817,-1.8845,-1.8897,-1.8915,-1.8931,-1.8993,-1.8987,-1.9003,-1.9033,-1.9061,-1.9068,-1.9075,-1.9097,-1.9105,-1.9008,-1.9008,-1.9008,0,-1.8654,-1.8703,-1.8706,-1.8742,-1.876,-1.8752,-1.8792,-1.8808,-1.8843,-1.8855,-1.8842,-1.8907,-1.8924,-1.8978,-1.8993,-1.9006,-1.9016,-1.9,-1.9067,-1.9073,-1.9079,-1.9101,-1.9109,-1.901,-1.9009,-1.9009,-1.9009,0,-1.8731,-1.8765,-1.8793,-1.8827,-1.8848,-1.8885,-1.8894,-1.8915,-1.8914,-1.8923,-1.8968,-1.8987,-1.9019,-1.9032,-1.9032,-1.9086,-1.9078,-1.9066,-1.9043,-1.9089,-1.911,-1.9118,-1.9012,-1.9012,-1.9011,-1.9011,0,0,-1.8804,-1.8838,-1.8848,-1.8863,-1.8891,-1.8917,-1.8953,-1.8985,-1.9003,-1.9026,-1.9057,-1.91,-1.9089,-1.9107,-1.9109,-1.9133,-1.9181,-1.9118,-1.9119,-1.913,-1.9242,-1.9251,-1.9261,-1.9177,-1.9178,-1.9179,-1.924,0,-1.8864,-1.8929,-1.8932,-1.8991,-1.9022,-1.9014,-1.9045,-1.9065,-1.9074,-1.9101,-1.911,-1.9142,-1.9124,-1.9135,-1.9159,-1.917,-1.9204,-1.9166,-1.9205,-1.9207,-1.92,-1.9271,-1.9282,-1.9338,-1.9248,-1.9249,-1.925,0,-1.8943,-1.8969,-1.9031,-1.9053,-1.9066,-1.9095,-1.9124,-1.915,-1.9172,-1.9176,-1.9196,-1.9193,-1.923,-1.9205,-1.9255,-1.9229,-1.9245,-1.9253,-1.9255,-1.926,-1.9232,-1.9278,-1.9356,-1.9365,-1.9262,-1.9261,-1.926,0,-1.899,-1.904,-1.9084,-1.9096,-1.9124,-1.9144,-1.9156,-1.9177,-1.9195,-1.922,-1.9232,-1.9261,-1.9277,-1.9299,-1.9304,-1.9285,-1.9354,-1.933,-1.9359,-1.9359,-1.9375,-1.9374,-1.9457,-1.9384,-1.9384,-1.9384,-1.9384,0,-1.9058,-1.9096,-1.9105,-1.9132,-1.9174,-1.9177,-1.9218,-1.9229,-1.9247,-1.9275,-1.927,-1.9296,-1.9301,-1.9328,-1.9332,-1.9373,-1.938,-1.9385,-1.9386,-1.9386,-1.9386,-1.9398,-1.9394,-1.9386,-1.9385,-1.9385,-1.9385,0,-1.9118,-1.9126,-1.9173,-1.9194,-1.9201,-1.9231,-1.9249,-1.9274,-1.9282,-1.9317,-1.9326,-1.9338,-1.937,-1.9376,-1.9414,-1.9417,-1.9466,-1.9462,-1.9458,-1.9458,-1.9488,-1.9485,-1.9582,-1.9595,-1.9512,-1.9513,-1.9514,0,-1.9161,-1.919,-1.9215,-1.9233,-1.9247,-1.9276,-1.9295,-1.9298,-1.9318,-1.9345,-1.9367,-1.9398,-1.9423,-1.9474,-1.9486,-1.9514,-1.9512,-1.9544,-1.9516,-1.9516,-1.9513,-1.9512,-1.9515,-1.9549,-1.955,-1.9551,-1.9552,0,-1.9237,-1.9239,-1.9266,-1.9295,-1.9317,-1.934,-1.9361,-1.9377,-1.9383,-1.9405,-1.9437,-1.9457,-1.9495,-1.9526,-1.9554,-1.9566,-1.956,-1.956,-1.9568,-1.957,-1.9566,-1.9569,-1.9474,-1.9558,-1.9557,-1.9557,-1.9557,-1.9556,-1.929,-1.9316,-1.9337,-1.9367,-1.9383,-1.9403,-1.9428,-1.9438,-1.9465,-1.9497,-1.9497,-1.9532,-1.9552,-1.959,-1.9603,-1.9631,-1.9621,-1.9633,-1.9636,-1.9639,-1.9642,-1.9561,-1.9636,-1.9635,-1.9635,-1.9635,-1.9635,0,-1.9366,-1.9378,-1.9406,-1.9436,-1.946,-1.9452,-1.9475,-1.9495,-1.9526,-1.9546,-1.957,-1.9607,-1.9637,-1.965,-1.9679,-1.9698,-1.9696,-1.9706,-1.9705,-1.9708,-1.9649,-1.9639,-1.9707,-1.9707,-1.9707,-1.9707,-1.9707,-1.9707,-1.9408,-1.945,-1.9455,-1.9505,-1.9517,-1.9552,-1.9565,-1.9584,-1.9599,-1.964,-1.9665,-1.9673,-1.969,-1.972,-1.9747,-1.975,-1.9761,-1.9772,-1.9774,-1.9719,-1.9712,-1.9705,-1.9696,-1.9774,-1.9775,-1.9831,-1.9831,-1.9831]}]]